Starlink 32793

operational
NORAD ID: 62874 Int'l Des: 2025-022 Owner: SPXS Country: US Constellation: starlink
LEOCIRCULAR

关于 Starlink 32793

正在加载描述...

实时位置

正在加载3D地球...

即将过境

高度历史

Altitude vs Time

uPlot chart will show altitude changes over time

两行轨道根数

1 62874U 25022W 25354.10542889 .00013658 00000-0 47259-3 0 9997
2 62874 53.1567 139.4061 0001163 87.3282 272.7852 15.30188149 49715
Epoch: Dec 20, 2025 • Age: 7 hours

当前状态

高度 486.1 km
速度 7.62 km/s
星下点 -32.95°S, 111.12°E
发射日期 Feb 2, 2025
运行时间 0.8 years
类型 internet

技术详情

分类 Payload
质量 730.00 kg
干质量 700.00 kg
总质量 730.00 kg
长度 0.30 m
直径 4.10 m
跨度 29.00 m
形状 Box + pan
制造商 SPXS
平台类型 Starlink V2M
阶段状态 In Orbit
所有者/国家 SPXS/US

大型星座

Loading constellations...